Location: Boitzum
(52.1496°N, 9.6943°E)
Time: 20:23:21
(UTC+00:00)

Lacrosse 5 rocket - Pass Details

Date: 13 January 2026
Orbit: 401 x 481 km, 57.0° (Epoch: 16 February)

Event Time Altitude Azimuth Distance (km) Brightness Sun altitude
Exits shadow 03:47:55 15° 63° (ENE) 1,401 4.0 -32.3°
Drops below altitude 10° 03:48:38 10° 63° (ENE) 1,687 4.5 -32.2°
Sets 03:50:49 0° 62° (ENE) 2,574 5.7 -31.9°
